Buenos Aires, Argentina

1:27 PM America en Julio 21, 2018 (GMT +0000)
Jorge Newbery Aeroparque

Tiempo Historia de SABE - Abril, 2018

Change the Weather History Date:

Martes, Abril 17, 2018

  Actual Average Record
Temperature  
Temperatura media 72 ° F -  
Temperatura máxima 77 ° F 68 ° F 82 ° F (2008)
Temperatura mínima 68 ° F 55 ° F 46 ° F (1999)
Cooling Degree Days 8    
Growing Degree Days 22 (Base 50)    
Moisture  
Punto de rocío 65 ° F    
Average Humidity 75    
Maximum Humidity 88    
Minimum Humidity 64    
Precipitación  
Precipitación 0.00 pul 0.10 pul - ()
Presión al nivel del mar  
Presión al nivel del mar 30.07 pul    
Viento  
Velocidad del viento 8 mph ()    
Velocidad máxima del viento 12 mph    
Max Gust Speed -    
Visibilidad 6.1 Millas    
Eventos      
Averages and records for this station are not official NWS values.
T = Trace of Precipitation, MM = Missing Value Source: Averaged Metar Reports

Daily Weather History Graph

Daily Weather History Graph

Search for Another Location

Airport or City:

Astronomía

Apr. 17, 2018 Salida Puesta
Hora real 7:18 AM -03 6:27 PM -03
Crepúsculo civil 6:53 AM -03 6:52 PM -03
Crepúsculo náutico 6:23 AM -03 7:22 PM -03
Crepúsculo astronómico 5:54 AM -03 7:51 PM -03
Luna 8:44 AM -03 (4/17) 7:55 PM -03 (4/17)
Horas de luz 11h 59m
Horas de luz
11h 08m
Creciente, 3% of the Moon is Illuminated
Abr 17
Creciente
Abr 22
Cuarto creciente
Abr 29
Luna llena
May 7
Cuarto menguante
May 15
Nueva

Hourly Weather History & Observations

Hora (-03) Temp. Punto de rocío Humedad Presión Visibilidad Wind Dir Velocidad del viento Velocidad de ráfagas Precip Eventos Condiciones
12:00 AM 72 ° F 63 ° F 65% 30.10 pul 6 mi NNE 10.4 mph - -   Nubes dispersas
12:00 AM 71.6 ° F 64.4 ° F 78% 30.09 pul - Norte 10.4 mph - N/A   Despejado
1:00 AM 71.6 ° F 62.6 ° F 73% 30.09 pul - Norte 10.4 mph - N/A   Despejado
2:00 AM 71.6 ° F 62.6 ° F 73% 30.09 pul - Norte 10.4 mph - N/A   Despejado
3:00 AM 71 ° F 61 ° F 64% 30.10 pul 6 mi Norte 9.2 mph - -  
3:00 AM 71.6 ° F 62.6 ° F 73% 30.09 pul - Norte 9.2 mph - N/A   Despejado
4:00 AM 69.8 ° F 62.6 ° F 78% 30.06 pul - Norte 9.2 mph - N/A   Despejado
5:00 AM 69.8 ° F 60.8 ° F 73% 30.06 pul - Norte 11.5 mph - N/A   Despejado
6:00 AM 69 ° F 62 ° F 71% 30.09 pul 6 mi Norte 10.4 mph - -   Nubes dispersas
6:00 AM 69.8 ° F 60.8 ° F 73% 30.06 pul - Norte 11.5 mph - N/A   Despejado
7:00 AM 69.8 ° F 62.6 ° F 78% 30.09 pul - Norte 11.5 mph - N/A   Despejado
8:00 AM 69.8 ° F 62.6 ° F 78% 30.09 pul - Norte 10.4 mph - N/A   Despejado
9:00 AM 69 ° F 62 ° F 73% 30.15 pul 6 mi Norte 8.1 mph - -   Muy nublado
9:00 AM 69.8 ° F 62.6 ° F 78% 30.12 pul - Norte 8.1 mph - N/A   Despejado
10:00 AM 69.8 ° F 62.6 ° F 78% 30.12 pul - Norte 6.9 mph - N/A   Despejado
11:00 AM 71.6 ° F 62.6 ° F 73% 30.09 pul - Norte 8.1 mph - N/A   Despejado
12:00 PM 72 ° F 63 ° F 67% 30.12 pul 6 mi Norte 8.1 mph - -   Nubes dispersas
12:00 PM 73.4 ° F 64.4 ° F 73% 30.09 pul - Norte 8.1 mph - N/A   Despejado
1:00 PM 75.2 ° F 66.2 ° F 73% 30.06 pul - NNE 5.8 mph - N/A   Despejado
2:00 PM 77.0 ° F 68.0 ° F 74% 30.06 pul 6.2 mi NE 4.6 mph - N/A   Nubes dispersas
3:00 PM 77.0 ° F 68.0 ° F 74% 30.04 pul 6.2 mi NE 5.8 mph - N/A   Nubes dispersas
4:00 PM 77.0 ° F 68.0 ° F 74% 30.04 pul 6.2 mi ENE 5.8 mph - N/A   Nubes dispersas
5:00 PM 77.0 ° F 68.0 ° F 74% 30.04 pul 6.2 mi ENE 6.9 mph - N/A   Parcialmente nublado
6:00 PM 76 ° F 68 ° F 69% 30.05 pul 6 mi Este 6.9 mph - -   Nubes dispersas
6:00 PM 77.0 ° F 68.0 ° F 74% 30.04 pul - Este 6.9 mph - N/A   Despejado
7:00 PM 73.4 ° F 68.0 ° F 83% 30.04 pul 6.2 mi ESE 5.8 mph - N/A   Parcialmente nublado
8:00 PM 71.6 ° F 68.0 ° F 88% 30.04 pul - ESE 8.1 mph - N/A   Despejado
9:00 PM 72 ° F 69 ° F 87% 30.06 pul 6 mi ESE 8.1 mph - -  
9:00 PM 73.4 ° F 68.0 ° F 83% 30.04 pul - ESE 8.1 mph - N/A   Despejado
10:00 PM 73.4 ° F 68.0 ° F 83% 30.04 pul - ENE 9.2 mph - N/A   Despejado
11:00 PM 73.4 ° F 68.0 ° F 83% 30.06 pul - ENE 8.1 mph - N/A   Despejado